Regional Weather Roundup
Issued by NWS

Home | Current Version | Previous Version | Graphics & Text | Print | Product List | Glossary On
Versions: 1 2 3 4 5 6 7 8 9 10 11 12 13 14 15 16 17 18 19 20 21 22 23 24 25 26 27 28 29 30 31 32 33 34 35 36 37 38 39 40 41 42 43 44 45 46 47 48 49 50
000
ASUS43 KLOT 231006
RWRIL

ILLINOIS REGIONAL WEATHER ROUNDUP
NATIONAL WEATHER SERVICE CHICAGO/ROMEOVILLE IL
500 AM CDT TUE SEP 23 2014

NOTE: "FAIR" INDICATES FEW OR NO CLOUDS BELOW 12,000 FEET WITH NO
SIGNIFICANT WEATHER AND/OR OBSTRUCTIONS TO VISIBILITY.

* THESE STATIONS ARE NOT UNDER NWS QUALITY CONTROL. THEY ALSO MAY NOT
  REPORT WEATHER SUCH AS PRECIPITATION OR FOG.

ILZ001-002-007-009-015-016-024-231100-
NORTHWEST ILLINOIS

CITY           SKY/WX    TMP DP  RH WIND       PRES   REMARKS
MOLINE         CLEAR     45  43  93 CALM      30.28R
STERLING*      CLEAR     43  39  87 SE3       30.29R
SAVANNA*       CLEAR     44  43  95 NE3       30.28S
$$

ILZ003-004-008-010-011-017-018-231100-
NORTH CENTRAL ILLINOIS

CITY           SKY/WX    TMP DP  RH WIND       PRES   REMARKS
ROCKFORD       CLEAR     46  42  86 CALM      30.30S
FREEPORT*      CLEAR     42  42  98 CALM      30.30S
ROCHELLE*      CLEAR     42  40  93 CALM      30.29S
DE KALB*       CLEAR     42  41  95 S5        30.30S
PERU*          CLEAR     49  44  82 CALM      30.30S
$$

ILZ005-006-012>014-019>023-231100-
NORTHEAST ILLINOIS

CITY           SKY/WX    TMP DP  RH WIND       PRES   REMARKS
CHICAGO-OHARE  CLEAR     52  43  71 W5        30.29R
CHICAGO-MIDWAY CLEAR     52  42  69 SW3       30.30R
AURORA         CLEAR     43  39  86 CALM      30.30S
LANSING*       CLEAR     45  42  91 CALM      30.30R
JOLIET*        CLEAR     44  42  95 CALM      30.31S
WAUKEGAN       CLEAR     49  45  86 VRB5      30.28R
DUPAGE AIRPORT CLEAR     49  44  83 CALM      30.29R
KANKAKEE*      CLEAR     42  42  97 CALM      30.31S
WHEELING       CLEAR     50  43  77 CALM      30.31R
MORRIS*        CLEAR     45  45 100 CALM      30.30R
ROMEOVILLE*    CLEAR     44  43  94 CALM      30.30S
NORTHERLY ISL    N/A     55  42  61 SW8         N/A
$$

LMZ740>746-231100-
SOUTHERN LAKE MICHIGAN

STATION/POSITION SKY/WX   TEMP    WIND        PRES    VSBY  WAVE
                          AIR SEA DIR/SP/G                  HT/PER
                          (F)     (DEG/KT/KT) (MB)    (MI)  (FT/S)
SOUTHERN BUOY              61 62  230/ 12/ 14 1025.2R         2/ 4
WAUKEGAN HARBOR            53     250/ 11/ 14   N/A
BURNHAM HARBOR             54     230/ 10/ 11   N/A
CALUMET HARBOR             52     220/  4/  6 1024.5R
MICHIGAN CITY 6N           57 63  180/ 10/ 10   N/A           1/ 2
ST. JOSEPH                 58 64  160/ 10/ 12   N/A           2/ 3
$$

ILZ025>027-034>036-040-047-049-050-058-095>099-231100-
WEST-CENTRAL ILLINOIS

CITY           SKY/WX    TMP DP  RH WIND       PRES   REMARKS
QUINCY         CLEAR     50  42  74 SE6       30.26S
GALESBURG*     CLEAR    N/A N/A N/A CALM      30.29R
MACOMB*        CLEAR     42  41  99 CALM      30.30S
JACKSONVILLE*  CLEAR     46  43  89 E3        30.29S
PITTSFIELD*    PTCLDY    47  45  90 CALM      30.29R
$$

ILZ028>032-037-038-041>044-048-051>054-059>061-231100-
CENTRAL ILLINOIS

CITY           SKY/WX    TMP DP  RH WIND       PRES   REMARKS
PONTIAC        CLEAR     45  43  93 CALM      30.30S
BLOOMINGTON    CLEAR     47  43  86 S6        30.31R
DECATUR        CLEAR     44  41  89 E5        30.30R
PEORIA         CLEAR     49  45  86 CALM      30.29S
LACON*         CLEAR     43  41  93 CALM      30.29S
LINCOLN*       CLEAR     46  43  90 CALM      30.28S
SPRINGFIELD    CLEAR     45  42  89 CALM      30.29R
TAYLORVILLE    CLEAR     45  43  93 CALM      30.29S
$$

ILZ033-039-045-046-055>057-062-063-231100-
EAST-CENTRAL ILLINOIS

CITY           SKY/WX    TMP DP  RH WIND       PRES   REMARKS
CHAMPAIGN        N/A    N/A N/A N/A MISG      30.31R
DANVILLE*      CLEAR     42  41  97 CALM      30.28S
RANTOUL*       CLEAR     47  44  88 CALM      30.32R
MATTOON        CLEAR     46  44  93 CALM      30.30R
PARIS*         CLEAR     42  42 100 CALM      30.32R FOG
$$

ILZ079-100>102-231100-
SOUTHWEST ILLINOIS

CITY           SKY/WX    TMP DP  RH WIND       PRES   REMARKS
ALTON          PTCLDY    47  46  96 CALM      30.29R
BELLEVILLE     PTCLDY    47  47  99 CALM      30.27S FOG
CAHOKIA*       FOG       46  45  96 CALM      30.28S VSB 1/2
SPARTA*        CLEAR     45  43  94 CALM      30.29S
$$

ILZ064>066-069>071-074>076-080>082-084>086-088>090-092>094-231100-
SOUTH-CENTRAL ILLINOIS

CITY           SKY/WX    TMP DP  RH WIND       PRES   REMARKS
CARBONDALE     FOG       42  41  96 CALM      30.28R VSB 1/2
CAIRO*         CLEAR     47  44  90 CALM      30.27R
EFFINGHAM*     CLEAR     45  42  91 CALM      30.29F
MARION         FOG       45  43  93 CALM      30.29R VSB 1
MT. VERNON     CLEAR     43  37  81 CALM      30.29S
CENTRALIA*     CLEAR     42  40  93 CALM      30.28S
SALEM*         FAIR      48  47  97 CALM      30.29S
METROPOLIS*    CLEAR     44  44 100 CALM      30.26S
$$

ILZ067-068-072-073-078-083-087-091-231100-
SOUTHEAST ILLINOIS

CITY           SKY/WX    TMP DP  RH WIND       PRES   REMARKS
LAWRENCEVILLE  CLEAR     45  44  97 CALM      30.30R FOG
FLORA*         CLEAR     46  46  99 CALM      30.30S
FAIRFIELD*     CLEAR    N/A N/A N/A CALM      30.29R
HARRISBURG*    CLEAR     44  44 100 CALM      30.29S
ROBINSON*        N/A     44  44 100 CALM      30.31R FOG
CARMI*         CLEAR     45  45 100 CALM      30.29R
$$

ABBREVIATIONS USED IN REMARKS
   TC - TEMPERATURE IN CELSIUS
  WCI - WIND CHILL INDEX
   HX - HEAT INDEX
  VSB - VISIBILITY
$$



USA.gov is the U.S. government's official web portal to all federal, state and local government web resources and services.